TimeCDT,TemperatureF,Dew PointF,Humidity,Sea Level PressureIn,VisibilityMPH,Wind Direction,Wind SpeedMPH,Gust SpeedMPH,PrecipitationIn,Events,Conditions,WindDirDegrees,DateUTC
12:53 AM,63.0,61.0,93,29.65,10.0,South,6.9,-,N/A,,Clear,170,2013-05-28 05:53:00
1:53 AM,64.0,61.0,90,29.59,10.0,Calm,Calm,-,N/A,,Clear,0,2013-05-28 06:53:00
2:53 AM,60.1,59.0,96,29.59,9.0,Calm,Calm,-,N/A,,Clear,0,2013-05-28 07:53:00
3:53 AM,61.0,59.0,93,29.62,10.0,Calm,Calm,-,N/A,,Clear,0,2013-05-28 08:53:00
4:53 AM,59.0,57.9,96,29.62,10.0,East,5.8,-,N/A,,Clear,100,2013-05-28 09:53:00
5:48 AM,57.2,55.4,94,29.70,10.0,NNE,5.8,-,N/A,,Scattered Clouds,30,2013-05-28 10:48:00
5:53 AM,57.9,57.0,97,29.64,10.0,NE,8.1,-,N/A,,Mostly Cloudy,50,2013-05-28 10:53:00
6:14 AM,60.8,59.0,94,29.71,3.0,NE,10.4,-,N/A,,Overcast,50,2013-05-28 11:14:00
6:17 AM,60.8,59.0,94,29.71,1.5,NE,10.4,-,N/A,,Overcast,50,2013-05-28 11:17:00
6:21 AM,60.8,60.8,100,29.71,0.8,NE,15.0,19.6,N/A,,Overcast,40,2013-05-28 11:21:00
6:53 AM,61.0,61.0,100,29.66,1.5,NE,13.8,-,N/A,,Overcast,50,2013-05-28 11:53:00
6:58 AM,60.8,60.8,100,29.72,3.0,ENE,15.0,-,N/A,,Overcast,60,2013-05-28 11:58:00
7:53 AM,63.0,62.1,97,29.65,5.0,ENE,13.8,-,N/A,,Overcast,70,2013-05-28 12:53:00
8:46 AM,64.4,62.6,94,29.70,9.0,NE,16.1,-,N/A,,Overcast,50,2013-05-28 13:46:00
8:53 AM,64.9,62.1,90,29.65,10.0,NE,11.5,-,N/A,,Overcast,50,2013-05-28 13:53:00
9:53 AM,66.9,62.1,84,29.66,10.0,ENE,11.5,-,N/A,,Overcast,60,2013-05-28 14:53:00
10:25 AM,68.0,62.6,83,29.72,10.0,ENE,3.5,-,0.00,,Overcast,70,2013-05-28 15:25:00
10:53 AM,69.1,63.0,81,29.68,10.0,North,6.9,-,0.00,,Overcast,360,2013-05-28 15:53:00
11:35 AM,69.8,60.8,73,29.72,10.0,NNW,15.0,-,N/A,,Overcast,340,2013-05-28 16:35:00
11:53 AM,69.1,60.1,73,29.68,10.0,NNW,11.5,-,N/A,,Overcast,340,2013-05-28 16:53:00
12:53 PM,75.0,61.0,62,29.65,10.0,NE,12.7,21.9,N/A,,Overcast,40,2013-05-28 17:53:00
1:53 PM,78.1,63.0,60,29.61,10.0,ENE,18.4,25.3,N/A,,Mostly Cloudy,60,2013-05-28 18:53:00
2:05 PM,80.6,62.6,54,29.67,10.0,ENE,17.3,-,N/A,,Scattered Clouds,70,2013-05-28 19:05:00
2:53 PM,82.0,64.9,56,29.61,10.0,East,16.1,24.2,N/A,,Scattered Clouds,100,2013-05-28 19:53:00
3:53 PM,82.0,64.9,56,29.60,10.0,East,13.8,-,N/A,,Partly Cloudy,100,2013-05-28 20:53:00
4:53 PM,82.0,64.9,56,29.57,9.0,East,11.5,-,N/A,,Scattered Clouds,80,2013-05-28 21:53:00
5:53 PM,82.0,66.0,58,29.56,10.0,East,11.5,-,N/A,,Scattered Clouds,100,2013-05-28 22:53:00
6:53 PM,82.9,66.9,58,29.50,10.0,ENE,10.4,-,N/A,,Clear,70,2013-05-28 23:53:00
7:53 PM,82.0,66.9,60,29.50,10.0,East,15.0,-,N/A,,Clear,80,2013-05-29 00:53:00
8:53 PM,79.0,66.9,66,29.53,10.0,East,13.8,-,N/A,,Clear,100,2013-05-29 01:53:00
9:53 PM,75.9,68.0,76,29.55,10.0,East,9.2,-,N/A,,Clear,100,2013-05-29 02:53:00
10:31 PM,78.8,44.6,30,29.62,10.0,South,13.8,-,N/A,,Clear,170,2013-05-29 03:31:00
10:53 PM,77.0,43.0,30,29.54,10.0,South,11.5,-,N/A,,Clear,170,2013-05-29 03:53:00
11:53 PM,75.0,45.0,34,29.53,10.0,SSE,5.8,-,N/A,,Scattered Clouds,160,2013-05-29 04:53:00